This demonstration page uses our WeatherBlox Daily Observations layout. Learn more.

Left ArrowRight Arrow

Hourly Observations for September 2, 2021

Temp ( °F °C ) Dew Point ( °F °C ) Humidity (%) Winds ( mph kmh ) Pressure ( in mb ) Visibility ( mi km ) Precip ( " mm )
12:53 am 00:53 Cloudy 84 28.9 63 17.2 49 49 S 9 15 29.72 1007 10 16 0.00 0.00
1:49 am 01:49 Cloudy 77 25 66 19 69 69 W 18 30 29.76 1008 10 16 0.00 0.00
1:53 am 01:53 Cloudy 76 24.4 67 19.4 74 74 W 22 35 29.77 1008 10 16 0.00 0.00
2:25 am 02:25 Cloudy with Nearby Thunderstorms 74 23.3 68 20 82 82 W 17 28 29.78 1008 10 16 0.00 0.00
2:53 am 02:53 Cloudy with Nearby Thunderstorms 73 22.8 69 20.6 87 87 W 13 20 29.76 1008 10 16 0.00 0.00
3:10 am 03:10 Cloudy with Rain 72 22.2 69 20.6 91 91 W 12 19 29.79 1009 4 6 0.01 0.25
3:37 am 03:37 Cloudy with Nearby Thunderstorms 71 21.7 68 20 90 90 W 16 26 29.80 1009 10 16 0.02 0.51
3:44 am 03:44 Cloudy with Thunderstorms 71 21.7 68 20 90 90 WSW 20 31 29.81 1010 10 16 0.02 0.51
3:53 am 03:53 Cloudy with Nearby Thunderstorms 71 21.7 67 19.4 87 87 W 17 28 29.78 1009 10 16 0.02 0.51
4:37 am 04:37 Mostly Cloudy 70 21.1 67 19.4 90 90 NNW 6 9 29.79 1009 10 16 0.03 0.76
4:53 am 04:53 Mostly Cloudy 70 21.1 67 19.4 90 90 N 8 13 29.76 1008 10 16 0.04 1.02
5:53 am 05:53 Clear 70 21.1 67 19.4 90 90 N 5 7 29.79 1009 10 16 0.00 0.00
6:53 am 06:53 Clear 71 21.7 68 20 90 90 Calm 29.80 1009 10 16 0.00 0.00
7:53 am 07:53 Sunny 70 21.1 68 20 93 93 E 5 7 29.81 1009 10 16 0.00 0.00
8:53 am 08:53 Sunny 73 22.8 68 20 84 84 SE 5 7 29.81 1010 10 16 0.00 0.00
9:53 am 09:53 Sunny 76 24.4 69 20.6 79 79 S 6 9 29.83 1010 10 16 0.00 0.00
10:53 am 10:53 Sunny 80 26.7 68 20 67 67 SW 8 13 29.83 1010 10 16 0.00 0.00
11:53 am 11:53 Sunny 81 27.2 69 20.6 67 67 SSW 5 7 29.83 1010 10 16 0.00 0.00
12:53 pm 12:53 Sunny 83 28.3 69 20.6 63 63 SW 7 11 29.82 1010 10 16 0.00 0.00
1:53 pm 13:53 Sunny 86 30 67 19.4 53 53 SW 7 11 29.81 1009 10 16 0.00 0.00
2:53 pm 14:53 Sunny 88 31.1 67 19.4 50 50 SW 7 11 29.78 1009 10 16 0.00 0.00
3:53 pm 15:53 Sunny 91 32.8 66 18.9 44 44 WSW 9 15 29.76 1008 10 16 0.00 0.00
4:53 pm 16:53 Sunny 92 33.3 65 18.3 41 41 SW 13 20 29.73 1007 10 16 0.00 0.00
5:53 pm 17:53 Sunny 92 33.3 65 18.3 41 41 SW 8 13 29.72 1006 10 16 0.00 0.00
6:53 pm 18:53 Sunny 92 33.3 65 18.3 41 41 SW 7 11 29.72 1006 10 16 0.00 0.00
7:27 pm 19:27 Partly Cloudy with Nearby Thunderstorms 90 32.2 66 18.9 45 45 WSW 7 11 29.64 1004 10 16 0.00 0.00
7:42 pm 19:42 Partly Cloudy 86 30 66 18.9 51 51 SSE 18 30 29.67 1005 10 16 0.00 0.00
7:53 pm 19:53 Mostly Cloudy 86 30 66 18.9 51 51 SSE 14 22 29.75 1007 10 16 0.00 0.00
8:53 pm 20:53 Partly Cloudy 85 29.4 67 19.4 55 55 SW 10 17 29.76 1008 10 16 0.00 0.00
9:12 pm 21:12 Mostly Clear with Nearby Thunderstorms 84 28.9 67 19.4 57 57 S 3 6 29.71 1006 10 16 0.00 0.00
9:37 pm 21:37 Mostly Cloudy 84 28.9 67 19.4 57 57 SE 8 13 29.72 1007 10 16 0.00 0.00
9:53 pm 21:53 Partly Cloudy 83 28.3 67 19.4 59 59 SE 9 15 29.78 1009 10 16 0.00 0.00
10:53 pm 22:53 Partly Cloudy 81 27.2 68 20 65 65 SSE 5 7 29.80 1009 10 16 0.00 0.00
11:53 pm 23:53 Clear 80 26.7 68 20 67 67 E 3 6 29.81 1009 10 16 0.00 0.00

Powered by AerisWeather